Orbital Elements at Epoch 2459000.5 (2020-May-31.0) TDB
Reference: JPL 14 (heliocentric ecliptic J2000)
Element | Value | Uncertainty (1-sigma) | Units |
e | .09876388399463444 | 5.2347e-08 | |
a | 2.259294718383103 | 1.5713e-08 | au |
q | 2.036157996907024 | 1.1986e-07 | au |
i | 3.501499247980463 | 5.8085e-06 | deg |
node | 104.8784618560663 | 9.5132e-05 | deg |
peri | 80.750081024773 | 0.00010029 | deg |
M | 302.90242552962 | 3.5159e-05 | deg |
tp | 2459197.231052908952 (2020-Dec-13.73105291) | 0.0001221 | TDB |
period | 1240.388575244347 3.40 | 1.294e-05 3.543e-08 | d yr |
n | .2902316315909978 | 3.0279e-09 | deg/d |
Q | 2.482431439859182 | 1.7265e-08 | au |
|
| | Orbit Determination Parameters
Additional Information
|